SL-14 DEB, 45304

Orbit data source: Space-Track

SL-14 DEB, 45304 is space debris in LEO originally from a launch on Thu, 15 Aug 1991 UTC launched from the Plesetsk Missile And Space Complex (PKMTR). Debris objects in space refer to the collection of defunct objects orbiting the Earth. Examples of debris include non-operational satellites, rocket bodies, and fragments generated from explosions, collisions, or faulty payload assembly.

Loading next visibility...
Identifier
45304, 1991-056AS
Orbit
LEO
Country
Flag of CISCIS
Related business
Manufacturer
Unknown
Mission
Spacecraft
Bus & Motor
Unknown
Mass
Unknown
Launch date (UTC)
1991-08-15 (34 years ago)
Launch vehicle
Unknown
Launch site
Plesetsk Missile And Space Complex (PKMTR)
Object type
Payload
Rocket body
Debris
Shape & HBR
Unknown shape, 0.1 m
Radar Cross Section
Small (<0.1 m²)

Expand to show TLE details & history
Last TLE update: 21 hours ago

TLE from 21 hours ago
0 SL-14 DEB
1 45304U 91056AS  26035.05963830  .00004389  00000-0  10291-1 0  9995
2 45304  82.6866 272.7900 0041442 189.0214 171.0173 13.23461810284914
Epoch: 2026-02-04T01:25Z
TLE epoch observation values (Epoch: 2026-02-04T01:25:52.749Z)
Latitude
0.00004°
Longitude
117.08857°
Altitude
1,205.259 km
Speed
7.237 km/s
True Right ascension
18h 11m 09s
True Declination
0° 00' 00"
Sunlit
Object was in daylight at epoch
Visualization orbit readout
Latitude
Unknown
Longitude
Unknown
Altitude
Unknown
Speed
Unknown
Apparent Right ascension
Unknown
Apparent Declination
Unknown
Sunlit
N/A
Visualization observer readout
Local Sidereal Time
00:46:58
Azimuth
Unknown
Elevation
Unknown
Doppler factor
Unknown
Orbital elements
Apogee altitude
1,200.032 km
Perigee altitude
1,137.48 km
Semi-major axis
7,546.893 km
Eccentricity
0.00414
Inclination
82.6866°
RAAN
272.79°
Arg. of periapsis
189.0214°
True anomaly
171.09107°
Mean anomaly
171.0173°
Eccentric anomaly
171.05422°
Mean motion
3.31048 °/min
Orbital period
108.75 mins
BSTAR
0.010291
Loading maneuver chart data...
Computing Atmospheric mass density...
Loading historical data...
Loading historical data...
Loading historical data...
Loading historical data...
Loading historical data...
Loading historical data...
Loading historical data...

Documentation

Showing up to 5 results
|